Weather History for KFSI - February, 2013

Change the Weather History Date:

Sunday, February 24, 2013

  Actual Average Record
Temperature  
Mean Temperature 48 °F -  
Max Temperature 65 °F 59 °F 87 °F (1956)
Min Temperature 31 °F 34 °F 11 °F (1965)
Degree Days  
Heating Degree Days 17    
Moisture  
Dew Point 36 °F    
Average Humidity 62    
Maximum Humidity 84    
Minimum Humidity 41    
Precipitation  
Precipitation 0.00 in - - ()
Sea Level Pressure  
Sea Level Pressure 29.74 in    
Wind  
Wind Speed 11 mph (SE)    
Max Wind Speed 24 mph    
Max Gust Speed 30 mph    
Visibility 10 miles    
Events Thunderstorm    
Averages and records for this station are not official NWS values.
T = Trace of Precipitation, MM = Missing Value Source: NWS Daily Summary

Daily Weather History Graph

Daily Weather History Graph

Search for Another Location

Airport or City:

Trip Planner

Search our weather history database for the weather conditions in past years. The results will help you decide how hot, cold, wet, or windy it might be!

Date:

Astronomy

Feb. 24, 2013 Rise Set
Actual Time 7:08 AM CST 6:25 PM CST
Civil Twilight 6:43 AM CST 6:50 PM CST
Nautical Twilight 6:13 AM CST 7:20 PM CST
Astronomical Twilight 5:44 AM CST 7:49 PM CST
Moon 5:37 PM CST (2/24) 6:05 AM CST (2/24)
Length of Visible Light 12h 07m
Length of Day
11h 16m
Waxing Gibbous, 99% of the Moon is Illuminated
Feb 24
Waxing Gibbous
Feb 25
Full
Mar 4
Last Quarter
Mar 11
New
Mar 19
First Quarter

Hourly Weather History & Observations

Time (CST) Temp. Windchill Dew Point Humidity Pressure Visibility Wind Dir Wind Speed Gust Speed Precip Events Conditions
12:55 AM 36.0 °F 29.6 °F 29.1 °F 76% 29.86 in 10.0 mi SE 8.1 mph - N/A   Clear
1:55 AM 34.5 °F 29.4 °F 28.2 °F 78% 29.86 in 10.0 mi SE 5.8 mph - N/A   Clear
2:55 AM 34.9 °F 28.3 °F 28.0 °F 76% 29.84 in 10.0 mi SSE 8.1 mph - N/A   Clear
3:55 AM 33.8 °F 27.0 °F 28.4 °F 81% 29.84 in 10.0 mi South 8.1 mph - N/A   Clear
4:55 AM 32.5 °F 28.1 °F 28.2 °F 84% 29.84 in 10.0 mi SSE 4.6 mph - N/A   Clear
5:55 AM 31.8 °F 26.2 °F 27.5 °F 84% 29.83 in 10.0 mi ESE 5.8 mph - N/A   Clear
6:55 AM 33.1 °F 27.7 °F 27.9 °F 81% 29.84 in 10.0 mi SSE 5.8 mph - N/A   Clear
7:55 AM 34.9 °F 30.8 °F 29.5 °F 81% 29.86 in 10.0 mi SE 4.6 mph - N/A   Clear
8:55 AM 41.2 °F 34.1 °F 32.9 °F 72% 29.86 in 10.0 mi SE 12.7 mph - N/A   Clear
9:55 AM 48.4 °F - 36.3 °F 63% 29.84 in 10.0 mi SSE 19.6 mph - N/A   Clear
10:55 AM 53.4 °F - 38.7 °F 57% 29.83 in 10.0 mi SSE 15.0 mph - N/A   Clear
11:55 AM 58.3 °F - 39.2 °F 49% 29.80 in 10.0 mi SSE 19.6 mph - N/A   Clear
12:55 PM 61.7 °F - 38.8 °F 43% 29.75 in 10.0 mi South 19.6 mph 27.6 mph N/A   Clear
1:55 PM 63.5 °F - 39.6 °F 41% 29.71 in 10.0 mi South 18.4 mph 29.9 mph N/A   Clear
2:55 PM 64.9 °F - 40.8 °F 41% 29.67 in 10.0 mi SSE 24.2 mph 29.9 mph N/A   Clear
3:55 PM 65.5 °F - 41.0 °F 41% 29.65 in 10.0 mi SSE 20.7 mph - N/A   Clear
4:55 PM 65.1 °F - 41.7 °F 42% 29.63 in 10.0 mi SSE 20.7 mph 28.8 mph N/A   Clear
5:55 PM 62.8 °F - 41.9 °F 46% 29.64 in 10.0 mi SE 16.1 mph 24.2 mph N/A   Clear
6:55 PM 57.6 °F - 42.3 °F 57% 29.67 in 10.0 mi ESE 10.4 mph - N/A   Clear
7:55 PM 56.5 °F - 40.6 °F 55% 29.66 in 10.0 mi ESE 16.1 mph - N/A   Clear
8:55 PM 54.7 °F - 40.3 °F 58% 29.62 in 10.0 mi ESE 16.1 mph - N/A   Clear
9:55 PM 53.6 °F - 39.2 °F 58% 29.62 in 10.0 mi East 16.1 mph - N/A   Scattered Clouds
10:55 PM 53.2 °F - 38.7 °F 58% 29.65 in 10.0 mi NE 10.4 mph - N/A   Mostly Cloudy
11:00 PM 53.6 °F - 39.2 °F 58% 29.65 in 10.0 mi NE 9.2 mph - N/A Thunderstorm Thunderstorm
11:15 PM 51.8 °F - 39.2 °F 62% 29.66 in 10.0 mi North 15.0 mph - N/A   Overcast
11:55 PM 52.0 °F - 39.7 °F 63% 29.65 in 10.0 mi NNE 17.3 mph - N/A   Overcast